Janesville, WI

2:26 PM CDT on May 23, 2018 (GMT -0500)
Rock County

Weather History for KJVL - June, 2013

Change the Weather History Date:

Wednesday, June 26, 2013

  Actual Average Record
Temperature  
Mean Temperature 75 °F -  
Max Temperature 82 °F 77 °F 89 °F (1989)
Min Temperature 68 °F 57 °F 46 °F (2012)
Cooling Degree Days 10    
Growing Degree Days 25 (Base 50)    
Moisture  
Dew Point 66 °F    
Average Humidity 78    
Maximum Humidity 88    
Minimum Humidity 61    
Precipitation  
Precipitation 0.00 in - - ()
Sea Level Pressure  
Sea Level Pressure 29.77 in    
Wind  
Wind Speed 7 mph (ESE)    
Max Wind Speed 15 mph    
Max Gust Speed 18 mph    
Visibility 10 miles    
Events Rain , Thunderstorm    
Averages and records for this station are not official NWS values.
T = Trace of Precipitation, MM = Missing Value Source: NWS Daily Summary

Daily Weather History Graph

Daily Weather History Graph

Search for Another Location

Airport or City:

Astronomy

Jun. 26, 2013 Rise Set
Actual Time 5:20 AM CDT 8:38 PM CDT
Civil Twilight 4:45 AM CDT 9:13 PM CDT
Nautical Twilight 3:59 AM CDT 9:58 PM CDT
Astronomical Twilight 3:04 AM CDT 10:53 PM CDT
Moon 10:54 PM CDT (6/26) 9:16 AM CDT (6/26)
Length of Visible Light 16h 27m
Length of Day
15h 17m
Waning Gibbous, 85% of the Moon is Illuminated
Jun 26
Waning Gibbous
Jun 29
Last Quarter
Jul 8
New
Jul 15
First Quarter
Jul 22
Full

Hourly Weather History & Observations

Time (CDT) Temp. Heat Index Dew Point Humidity Pressure Visibility Wind Dir Wind Speed Gust Speed Precip Events Conditions
5:45 AM 69.8 °F - 64.4 °F 83% 29.75 in 10.0 mi SE 8.1 mph - N/A Rain , Thunderstorm Light Thunderstorms and Rain
6:45 AM 69.8 °F - 64.4 °F 83% 29.78 in 5.0 mi East 5.8 mph - N/A Rain , Thunderstorm Thunderstorms and Rain
7:45 AM 68.0 °F - 64.4 °F 88% 29.81 in 6.0 mi NE 11.5 mph 17.3 mph N/A Rain , Thunderstorm Light Thunderstorms and Rain
8:45 AM 68.0 °F - 64.4 °F 88% 29.79 in 10.0 mi East 6.9 mph - N/A Rain Light Rain
9:45 AM 71.6 °F - 66.2 °F 83% 29.75 in 10.0 mi ESE 13.8 mph - N/A   Mostly Cloudy
10:45 AM 71.6 °F - 66.2 °F 83% 29.78 in 10.0 mi SSE 12.7 mph 18.4 mph N/A   Mostly Cloudy
11:45 AM 71.6 °F - 66.2 °F 83% 29.78 in 10.0 mi SSE 12.7 mph - N/A   Partly Cloudy
12:45 PM 73.4 °F - 64.4 °F 73% 29.76 in 10.0 mi SE 15.0 mph - N/A   Clear
1:45 PM 75.2 °F - 64.4 °F 69% 29.76 in 10.0 mi South 11.5 mph - N/A   Scattered Clouds
2:45 PM 77.0 °F - 66.2 °F 69% 29.77 in 10.0 mi WSW 6.9 mph - N/A   Clear
3:45 PM 78.8 °F - 66.2 °F 65% 29.75 in 10.0 mi NNW 3.5 mph - N/A   Scattered Clouds
4:45 PM 80.6 °F 82.7 °F 66.2 °F 61% 29.75 in 10.0 mi NNW 5.8 mph - N/A   Partly Cloudy
5:45 PM 82.4 °F 85.4 °F 68.0 °F 62% 29.74 in 10.0 mi NNW 6.9 mph - N/A   Partly Cloudy
6:45 PM 80.6 °F 82.7 °F 66.2 °F 61% 29.73 in 10.0 mi Calm Calm - N/A   Partly Cloudy
7:45 PM 78.8 °F - 68.0 °F 69% 29.75 in 10.0 mi Calm Calm - N/A   Clear
8:45 PM 75.2 °F - 66.2 °F 73% 29.74 in 10.0 mi ESE 5.8 mph - N/A   Clear
10:19 PM 73.4 °F - 68.0 °F 83% 29.77 in 10.0 mi Calm Calm - N/A   Clear
10:39 PM 71.6 °F - 68.0 °F 88% 29.78 in 10.0 mi Calm Calm - N/A   Clear
10:59 PM 71.6 °F - 66.2 °F 83% 29.78 in 10.0 mi Calm Calm - N/A   Scattered Clouds
11:19 PM 71.6 °F - 68.0 °F 88% 29.79 in 10.0 mi Calm Calm - N/A   Overcast
11:39 PM 71.6 °F - 68.0 °F 88% 29.78 in 10.0 mi Calm Calm - N/A   Overcast
11:59 PM 73.4 °F - 68.0 °F 83% 29.78 in 10.0 mi Calm Calm - N/A   Mostly Cloudy